Tacoma Narrows, WA
on Wednesday, February 13, 2013

Wednesday
Previous Day Next Day
Daily Summary
 ActualAverageRecord
Temperature
Mean Temperature °F °F  
Max Temperature 48°F 46°F 54°F (2014)
Min Temperature 44°F 36°F 30°F (2001)
Degree Days
Heating Degree Days 19    
Moisture
Dew Point 40°F   
Average Humidity 80    
Maximum Humidity 93    
Minimum Humidity 68    
Precipitation
Precipitation 0.02 in in in ()
Wind
Wind Speed 9 mph   
Max Wind Speed 15 mph   
Max Gust Speed 21 mph   
Visibility 10 miles   
Events Rain   
Averages and records for this station are not official NWS values.
Key: T is trace of precipitation, MM is missing value
Source: NWS Daily Summary
Seasonal Weather Averages
Time(PST)TemperatureDew PointHumidity Pressure Visibility Wind DirectionWind SpeedGust SpeedPrecipitationEvents Conditions
12:53 AM 46.9°F 42.1°F 83% 30.34 in 10.0 miles SSW 9.2 mph 19.6 mph N/A   Mostly Cloudy
1:44 AM 46.4°F 42.8°F 87% 30.34 in 10.0 miles SSW 13.8 mph 19.6 mph N/A   Overcast
1:53 AM 46.9°F 43.0°F 86% 30.35 in 10.0 miles SSW 15.0 mph 20.7 mph N/A   Overcast
2:02 AM 46.4°F 42.8°F 87% 30.34 in 5.0 miles SSW 11.5 mph 19.6 mph 0.00 in Rain Light Rain
2:24 AM 46.4°F 44.6°F 93% 30.35 in 5.0 miles SSW 9.2 mph - 0.02 in Rain Light Rain
2:50 AM 46.4°F 42.8°F 87% 30.35 in 10.0 miles SW 11.5 mph 18.4 mph 0.02 in   Overcast
2:53 AM 46.0°F 42.1°F 86% 30.36 in 9.0 miles SW 10.4 mph 18.4 mph 0.02 in   Overcast
3:37 AM 44.6°F 41.0°F 87% 30.36 in 10.0 miles SSW 10.4 mph 18.4 mph 0.00 in   Scattered Clouds
3:53 AM 45.0°F 39.9°F 82% 30.36 in 10.0 miles SSW 9.2 mph - 0.00 in   Clear
4:53 AM 44.1°F 37.9°F 79% 30.38 in 10.0 miles Variable 4.6 mph - N/A   Clear
5:53 AM 44.1°F 37.0°F 76% 30.38 in 10.0 miles SW 6.9 mph 20.7 mph N/A   Clear
6:53 AM 44.1°F 37.0°F 76% 30.39 in 10.0 miles SSW 8.1 mph - N/A   Mostly Cloudy
7:15 AM 44.6°F 37.4°F 76% 30.39 in 10.0 miles South 8.1 mph - N/A   Partly Cloudy
7:51 AM 44.6°F 37.4°F 76% 30.40 in 10.0 miles SSW 6.9 mph - N/A   Scattered Clouds
7:53 AM 44.1°F 37.9°F 79% 30.41 in 10.0 miles SSW 8.1 mph - N/A   Scattered Clouds
8:53 AM 44.1°F 37.9°F 79% 30.43 in 10.0 miles SSW 9.2 mph - N/A   Scattered Clouds
9:00 AM 44.6°F 37.4°F 76% 30.42 in 10.0 miles SSW 10.4 mph - N/A   Mostly Cloudy
9:28 AM 44.6°F 39.2°F 81% 30.43 in 10.0 miles SSW 8.1 mph - N/A   Mostly Cloudy
9:53 AM 45.0°F 39.0°F 80% 30.45 in 10.0 miles South 9.2 mph - N/A   Mostly Cloudy
10:53 AM 46.9°F 39.0°F 74% 30.45 in 10.0 miles SSW 6.9 mph - N/A   Overcast
11:53 AM 46.0°F 39.0°F 76% 30.45 in 10.0 miles SSW 6.9 mph - N/A   Overcast
12:53 PM 46.9°F 37.9°F 71% 30.45 in 10.0 miles SW 9.2 mph - N/A   Overcast
1:53 PM 48.0°F 37.9°F 68% 30.43 in 10.0 miles SSW 6.9 mph - N/A   Overcast
2:53 PM 48.0°F 39.0°F 71% 30.44 in 10.0 miles South 6.9 mph - N/A   Overcast
3:53 PM 46.9°F 39.9°F 77% 30.45 in 10.0 miles SSW 3.5 mph - N/A   Overcast
3:56 PM 46.4°F 39.2°F 76% 30.44 in 10.0 miles South 5.8 mph - N/A   Overcast
4:53 PM 46.9°F 39.9°F 77% 30.45 in 10.0 miles SW 4.6 mph - N/A   Overcast
5:31 PM 46.4°F 39.2°F 76% 30.45 in 10.0 miles South 5.8 mph - N/A   Overcast
5:53 PM 46.0°F 39.9°F 79% 30.45 in 10.0 miles SSW 6.9 mph - N/A   Overcast
6:53 PM 46.0°F 39.9°F 79% 30.46 in 10.0 miles South 6.9 mph - N/A   Overcast
7:53 PM 46.0°F 39.0°F 76% 30.48 in 10.0 miles Variable 4.6 mph - N/A   Overcast
8:53 PM 45.0°F 39.0°F 80% 30.48 in 10.0 miles Variable 5.8 mph - N/A   Overcast
9:04 PM 44.6°F 39.2°F 81% 30.48 in 10.0 miles SSW 5.8 mph - N/A   Overcast
9:53 PM 44.1°F 39.0°F 82% 30.49 in 10.0 miles South 6.9 mph - N/A   Overcast
10:53 PM 44.1°F 39.0°F 82% 30.51 in 10.0 miles SSW 4.6 mph - N/A   Overcast
11:53 PM 44.1°F 39.0°F 82% 30.51 in 10.0 miles SSW 5.8 mph - N/A   Overcast
Moon Phase
Feb. 13 Feb. 17 Feb. 25 Mar. 04 Mar. 11
Sunrise:07:17 AM (PST) Moon Rise:08:31 AM (PST)2/13
Sunset:05:31 PM (PST) Moon Set:10:01 PM (PST)2/13

Copyright © 2014 The Weather Underground, Inc.